Time,TemperatureF,DewpointF,PressureIn,WindDirection,WindDirectionDegrees,WindSpeedMPH,WindSpeedGustMPH,Humidity,HourlyPrecipIn,Conditions,Clouds,dailyrainin,SoftwareType,DateUTC
2013-02-20 00:00:00,19.8,17.3,23.66,North,0,0.0,-999.0,90,0.00,,,0.47,,2013-02-20 08:00:00,
2013-02-20 01:00:00,19.6,17.4,23.64,North,0,0.0,-999.0,91,0.02,,,0.49,,2013-02-20 09:00:00,
2013-02-20 02:00:00,19.8,17.3,23.63,North,0,0.0,-999.0,90,0.00,,,0.49,,2013-02-20 10:00:00,
2013-02-20 03:00:00,20.0,17.7,23.64,North,0,0.0,-999.0,91,0.04,,,0.54,,2013-02-20 11:00:00,
2013-02-20 04:00:00,20.0,17.7,23.65,North,0,0.0,-999.0,91,0.06,,,0.60,,2013-02-20 12:00:00,
2013-02-20 05:00:00,19.8,17.6,23.68,North,0,0.0,-999.0,91,0.02,,,0.62,,2013-02-20 13:00:00,
2013-02-20 06:00:00,19.6,17.4,23.70,North,0,0.0,-999.0,91,0.00,,,0.62,,2013-02-20 14:00:00,
2013-02-20 07:08:00,19.6,17.4,23.70,North,0,0.0,-999.0,91,0.00,,,0.62,,2013-02-20 15:08:00,
2013-02-20 08:00:00,20.5,18.6,23.77,North,0,0.0,-999.0,92,0.00,,,0.62,,2013-02-20 16:00:00,
2013-02-20 09:07:00,21.8,19.8,23.77,North,0,0.0,-999.0,92,0.00,,,0.62,,2013-02-20 17:07:00,
2013-02-20 10:00:00,23.0,21.1,23.82,North,0,0.0,-999.0,92,0.00,,,0.62,,2013-02-20 18:00:00,
2013-02-20 11:07:00,26.3,24.0,23.82,North,0,0.0,-999.0,91,0.02,,,0.64,,2013-02-20 19:07:00,
2013-02-20 12:00:00,28.4,25.0,23.83,North,0,0.0,-999.0,87,0.00,,,0.64,,2013-02-20 20:00:00,
2013-02-20 13:07:00,32.0,26.9,23.83,North,0,0.0,-999.0,81,0.00,,,0.62,,2013-02-20 21:07:00,
2013-02-20 14:00:00,28.4,24.2,23.85,North,0,0.0,-999.0,84,0.00,,,0.62,,2013-02-20 22:00:00,
2013-02-20 15:06:00,25.2,22.2,23.85,North,0,0.0,-999.0,88,0.00,,,0.62,,2013-02-20 23:06:00,
2013-02-20 16:00:00,24.3,21.8,23.88,North,0,0.0,-999.0,90,0.00,,,0.62,,2013-02-21 00:00:00,
2013-02-20 17:06:00,24.3,20.4,23.88,North,0,0.0,-999.0,85,0.00,,,0.62,,2013-02-21 01:06:00,
2013-02-20 18:00:00,23.4,19.3,23.90,North,0,0.0,-999.0,84,0.00,,,0.62,,2013-02-21 02:00:00,
2013-02-20 19:00:00,23.2,19.1,23.89,North,0,0.0,-999.0,84,0.00,,,0.58,,2013-02-21 03:00:00,
2013-02-20 20:00:00,23.0,18.9,23.93,North,0,0.0,-999.0,84,0.00,,,0.47,,2013-02-21 04:00:00,
2013-02-20 21:00:00,22.9,18.7,23.94,North,0,0.0,-999.0,84,0.00,,,0.28,,2013-02-21 05:00:00,
2013-02-20 22:00:00,23.6,19.4,23.95,North,0,0.0,-999.0,84,0.00,,,0.17,,2013-02-21 06:00:00,
2013-02-20 23:00:00,20.7,17.1,23.94,North,0,0.0,-999.0,86,0.00,,,0.17,,2013-02-21 07:00:00,